Brookings, SD

12:31 AM CDT on June 24, 2017 (GMT -0500)
Brookings Municipal

Weather History for KBKX - October, 2012

Change the Weather History Date:

Thursday, October 4, 2012

  Actual Average Record
Temperature  
Mean Temperature 42 °F -  
Max Temperature 48 °F 61 °F 84 °F (2011)
Min Temperature 35 °F 38 °F 26 °F (2004)
Degree Days  
Heating Degree Days 22    
Moisture  
Dew Point 32 °F    
Average Humidity 68    
Maximum Humidity 93    
Minimum Humidity 53    
Precipitation  
Precipitation 0.00 in - - ()
Sea Level Pressure  
Sea Level Pressure 30.16 in    
Wind  
Wind Speed 22 mph (WNW)    
Max Wind Speed 31 mph    
Max Gust Speed 44 mph    
Visibility 10 miles    
Events      
Averages and records for this station are not official NWS values.
T = Trace of Precipitation, MM = Missing Value Source: NWS Daily Summary

Daily Weather History Graph

Daily Weather History Graph

Search for Another Location

Airport or City:

Trip Planner

Search our weather history database for the weather conditions in past years. The results will help you decide how hot, cold, wet, or windy it might be!

Date:

Astronomy

Oct. 04, 2012 Rise Set
Actual Time 7:29 AM CDT 7:01 PM CDT
Civil Twilight 7:00 AM CDT 7:30 PM CDT
Nautical Twilight 6:26 AM CDT 8:04 PM CDT
Astronomical Twilight 5:52 AM CDT 8:37 PM CDT
Moon 9:27 PM CDT (10/4) 11:57 AM CDT (10/4)
Length of Visible Light 12h 30m
Length of Day
11h 32m
Waning Gibbous, 82% of the Moon is Illuminated
Oct 4
Waning Gibbous
Oct 8
Last Quarter
Oct 15
New
Oct 21
First Quarter
Oct 29
Full

Hourly Weather History & Observations

Time (CDT) Temp. Windchill Dew Point Humidity Pressure Visibility Wind Dir Wind Speed Gust Speed Precip Events Conditions
12:15 AM 48.2 °F - 39.2 °F 71% 29.88 in 10.0 mi WNW 18.4 mph 34.5 mph N/A   Overcast
12:35 AM 46.4 °F 37.7 °F 39.2 °F 76% 29.90 in 10.0 mi WNW 26.5 mph 35.7 mph N/A   Overcast
12:55 AM 46.4 °F 39.2 °F 39.2 °F 76% 29.93 in 10.0 mi WNW 18.4 mph 29.9 mph N/A   Overcast
1:15 AM 44.6 °F 35.3 °F 37.4 °F 76% 29.95 in 10.0 mi WNW 26.5 mph 34.5 mph N/A   Overcast
1:35 AM 44.6 °F 35.5 °F 39.2 °F 81% 29.94 in 10.0 mi WNW 25.3 mph 32.2 mph N/A   Overcast
1:55 AM 42.8 °F 32.5 °F 37.4 °F 81% 29.94 in 10.0 mi WNW 28.8 mph 34.5 mph N/A   Overcast
2:15 AM 42.8 °F 33.5 °F 37.4 °F 81% 29.96 in 10.0 mi WNW 23.0 mph 29.9 mph N/A   Overcast
2:35 AM 42.8 °F 34.0 °F 37.4 °F 81% 29.97 in 10.0 mi WNW 20.7 mph 33.4 mph N/A   Overcast
2:55 AM 42.8 °F 34.5 °F 37.4 °F 81% 30.00 in 10.0 mi West 18.4 mph 28.8 mph N/A   Overcast
3:15 AM 42.8 °F 34.5 °F 37.4 °F 81% 30.00 in 10.0 mi West 18.4 mph 35.7 mph N/A   Overcast
3:35 AM 39.2 °F 29.6 °F 35.6 °F 87% 30.00 in 10.0 mi WNW 19.6 mph 31.1 mph N/A   Overcast
3:55 AM 39.2 °F 29.8 °F 33.8 °F 81% 30.01 in 10.0 mi WNW 18.4 mph 27.6 mph N/A   Overcast
4:15 AM 39.2 °F 28.7 °F 33.8 °F 81% 30.02 in 10.0 mi WNW 23.0 mph 29.9 mph N/A   Overcast
4:35 AM 39.2 °F 28.7 °F 33.8 °F 81% 30.03 in 10.0 mi WNW 23.0 mph 29.9 mph N/A   Overcast
4:55 AM 39.2 °F 29.3 °F 33.8 °F 81% 30.03 in 10.0 mi WNW 20.7 mph 27.6 mph N/A   Overcast
5:15 AM 39.2 °F 28.5 °F 33.8 °F 81% 30.04 in 10.0 mi WNW 24.2 mph 31.1 mph N/A   Overcast
5:55 AM 37.4 °F 25.9 °F 35.6 °F 93% 30.06 in 10.0 mi WNW 25.3 mph 31.1 mph N/A   Overcast
6:15 AM 37.4 °F 26.6 °F 33.8 °F 87% 30.07 in 10.0 mi WNW 21.9 mph 33.4 mph N/A   Overcast
6:35 AM 37.4 °F 25.9 °F 33.8 °F 87% 30.07 in 10.0 mi WNW 25.3 mph 34.5 mph N/A   Overcast
6:55 AM 39.2 °F 28.7 °F 33.8 °F 81% 30.09 in 10.0 mi WNW 23.0 mph 34.5 mph N/A   Overcast
7:15 AM 39.2 °F 29.0 °F 33.8 °F 81% 30.10 in 10.0 mi WNW 21.9 mph 28.8 mph N/A   Overcast
7:35 AM 39.2 °F 28.5 °F 33.8 °F 81% 30.10 in 10.0 mi WNW 24.2 mph 32.2 mph N/A   Overcast
7:55 AM 39.2 °F 28.0 °F 33.8 °F 81% 30.10 in 10.0 mi WNW 26.5 mph 34.5 mph N/A   Overcast
8:15 AM 39.2 °F 27.6 °F 33.8 °F 81% 30.11 in 10.0 mi WNW 28.8 mph 38.0 mph N/A   Overcast
8:35 AM 39.2 °F 27.8 °F 33.8 °F 81% 30.12 in 10.0 mi WNW 27.6 mph 38.0 mph N/A   Overcast
8:55 AM 39.2 °F 27.4 °F 32.0 °F 75% 30.13 in 10.0 mi WNW 29.9 mph 40.3 mph N/A   Overcast
9:15 AM 39.2 °F 27.8 °F 32.0 °F 75% 30.14 in 10.0 mi NW 27.6 mph 43.7 mph N/A   Overcast
9:35 AM 39.2 °F 27.2 °F 32.0 °F 75% 30.15 in 10.0 mi WNW 31.1 mph 35.7 mph N/A   Overcast
9:55 AM 39.2 °F 28.3 °F 32.0 °F 75% 30.16 in 10.0 mi WNW 25.3 mph 35.7 mph N/A   Overcast
10:15 AM 39.2 °F 27.8 °F 30.2 °F 70% 30.17 in 10.0 mi WNW 27.6 mph 38.0 mph N/A   Overcast
10:35 AM 39.2 °F 28.5 °F 30.2 °F 70% 30.19 in 10.0 mi WNW 24.2 mph 32.2 mph N/A   Overcast
10:55 AM 39.2 °F 28.3 °F 32.0 °F 75% 30.19 in 10.0 mi WNW 25.3 mph 33.4 mph N/A   Overcast
11:15 AM 39.2 °F 28.0 °F 32.0 °F 75% 30.20 in 10.0 mi WNW 26.5 mph 32.2 mph N/A   Overcast
11:35 AM 39.2 °F 28.3 °F 30.2 °F 70% 30.20 in 10.0 mi NW 25.3 mph 34.5 mph N/A   Overcast
11:55 AM 42.8 °F 32.5 °F 30.2 °F 61% 30.20 in 10.0 mi NW 28.8 mph 40.3 mph N/A   Overcast
12:15 PM 42.8 °F 33.5 °F 32.0 °F 66% 30.20 in 10.0 mi NW 23.0 mph 32.2 mph N/A   Overcast
12:35 PM 42.8 °F 34.3 °F 30.2 °F 61% 30.22 in 10.0 mi WNW 19.6 mph 31.1 mph N/A   Overcast
12:55 PM 42.8 °F 33.1 °F 30.2 °F 61% 30.21 in 10.0 mi WNW 25.3 mph 32.2 mph N/A   Overcast
1:35 PM 44.6 °F 35.5 °F 30.2 °F 57% 30.22 in 10.0 mi WNW 25.3 mph 34.5 mph N/A   Overcast
1:55 PM 44.6 °F 35.7 °F 30.2 °F 57% 30.22 in 10.0 mi NW 24.2 mph 31.1 mph N/A   Overcast
2:15 PM 44.6 °F 35.9 °F 30.2 °F 57% 30.23 in 10.0 mi WNW 23.0 mph 27.6 mph N/A   Overcast
2:35 PM 44.6 °F 36.6 °F 30.2 °F 57% 30.23 in 10.0 mi WNW 19.6 mph 33.4 mph N/A   Overcast
2:55 PM 44.6 °F 36.6 °F 30.2 °F 57% 30.23 in 10.0 mi WNW 19.6 mph 29.9 mph N/A   Overcast
3:15 PM 44.6 °F 35.1 °F 30.2 °F 57% 30.22 in 10.0 mi WNW 27.6 mph 35.7 mph N/A   Overcast
3:35 PM 44.6 °F 36.1 °F 28.4 °F 53% 30.23 in 10.0 mi WNW 21.9 mph 33.4 mph N/A   Overcast
3:55 PM 44.6 °F 36.1 °F 30.2 °F 57% 30.24 in 10.0 mi WNW 21.9 mph 31.1 mph N/A   Overcast
4:15 PM 44.6 °F 36.4 °F 28.4 °F 53% 30.24 in 10.0 mi WNW 20.7 mph 31.1 mph N/A   Overcast
4:35 PM 44.6 °F 35.7 °F 28.4 °F 53% 30.24 in 10.0 mi NW 24.2 mph - N/A   Overcast
4:55 PM 42.8 °F 33.3 °F 28.4 °F 57% 30.24 in 10.0 mi NW 24.2 mph 32.2 mph N/A   Overcast
5:15 PM 42.8 °F 33.1 °F 28.4 °F 57% 30.25 in 10.0 mi NW 25.3 mph 28.8 mph N/A   Overcast
5:35 PM 42.8 °F 34.0 °F 28.4 °F 57% 30.26 in 10.0 mi WNW 20.7 mph 26.5 mph N/A   Overcast
5:55 PM 42.8 °F 34.5 °F 28.4 °F 57% 30.26 in 10.0 mi NW 18.4 mph 25.3 mph N/A   Overcast
6:15 PM 42.8 °F 34.3 °F 28.4 °F 57% 30.26 in 10.0 mi NW 19.6 mph 26.5 mph N/A   Overcast
6:35 PM 42.8 °F 34.5 °F 28.4 °F 57% 30.26 in 10.0 mi WNW 18.4 mph 25.3 mph N/A   Overcast
6:55 PM 42.8 °F 34.8 °F 28.4 °F 57% 30.27 in 10.0 mi NW 17.3 mph - N/A   Overcast
7:15 PM 42.8 °F 35.1 °F 28.4 °F 57% 30.27 in 10.0 mi NW 16.1 mph 21.9 mph N/A   Overcast
7:35 PM 42.8 °F 33.8 °F 26.6 °F 53% 30.27 in 10.0 mi NW 21.9 mph 26.5 mph N/A   Overcast
7:55 PM 42.8 °F 34.8 °F 28.4 °F 57% 30.28 in 10.0 mi NW 17.3 mph 23.0 mph N/A   Overcast
8:15 PM 42.8 °F 37.0 °F 28.4 °F 57% 30.28 in 10.0 mi WNW 10.4 mph - N/A   Overcast
8:35 PM 42.8 °F 36.6 °F 28.4 °F 57% 30.29 in 10.0 mi WNW 11.5 mph 16.1 mph N/A   Overcast
8:55 PM 42.8 °F 37.5 °F 28.4 °F 57% 30.29 in 10.0 mi West 9.2 mph - N/A   Overcast
9:15 PM 42.8 °F 37.5 °F 28.4 °F 57% 30.29 in 10.0 mi WNW 9.2 mph - N/A   Overcast
9:35 PM 42.8 °F 37.5 °F 28.4 °F 57% 30.29 in 10.0 mi WNW 9.2 mph - N/A   Overcast
9:55 PM 42.8 °F 35.4 °F 28.4 °F 57% 30.29 in 10.0 mi WNW 15.0 mph 21.9 mph N/A   Overcast
10:15 PM 42.8 °F 35.8 °F 28.4 °F 57% 30.29 in 10.0 mi NW 13.8 mph - N/A   Overcast
10:35 PM 41.0 °F 33.5 °F 28.4 °F 61% 30.29 in 10.0 mi WNW 13.8 mph 17.3 mph N/A   Overcast
10:55 PM 41.0 °F 32.8 °F 28.4 °F 61% 30.29 in 10.0 mi NW 16.1 mph - N/A   Overcast
11:15 PM 39.2 °F 32.0 °F 26.6 °F 61% 30.30 in 10.0 mi NW 11.5 mph - N/A   Scattered Clouds
11:35 PM 37.4 °F 30.8 °F 26.6 °F 65% 30.30 in 10.0 mi NW 9.2 mph - N/A   Clear
11:55 PM 35.6 °F 30.7 °F 26.6 °F 70% 30.30 in 10.0 mi WNW 5.8 mph - N/A   Clear